• In India
  • List of Countries
  • For 7 days
  • Water Temperature
  • Satellite Maps
  • Weather Map
  • Weather Widgets
  • user-avatar
    Login

    Hourly Weather Salzburg

    Today, 21 November, Tuesday

    Time Temperature Precipitation Wind Pressure Humidity
    00:00 -4°C° 0.6 mm 2 mps 624 mmHg 93%
    01:00 -4°C° 0.6 mm 2 mps 624 mmHg 93%
    02:00 -4°C° 0.4 mm 2 mps 624 mmHg 93%
    03:00 -3°C° 0.4 mm 2 mps 623 mmHg 92%
    04:00 -3°C° 0.4 mm 2 mps 623 mmHg 92%
    05:00 -3°C° 0.6 mm 2 mps 623 mmHg 93%
    06:00 -3°C° 0.6 mm 2 mps 623 mmHg 94%
    07:00 -3°C° 0.6 mm 2 mps 623 mmHg 94%
    08:00 -2°C° 0.5 mm 2 mps 624 mmHg 94%
    09:00 -2°C° 0.5 mm 2 mps 624 mmHg 94%
    10:00 -1°C° 0.5 mm 2 mps 624 mmHg 94%
    11:00 -1°C° 0.4 mm 2 mps 624 mmHg 94%
    12:00 +1°C° 0.4 mm 2 mps 624 mmHg 94%
    13:00 +1°C° 0.4 mm 2 mps 624 mmHg 94%
    14:00 +1°C° 0.5 mm 2 mps 624 mmHg 95%
    15:00 -1°C° 0.5 mm 2 mps 624 mmHg 95%
    16:00 -1°C° 0.5 mm 2 mps 624 mmHg 96%
    17:00 -1°C° 0.6 mm 2 mps 624 mmHg 95%
    18:00 -1°C° 0.6 mm 2 mps 625 mmHg 95%
    19:00 -1°C° 0.6 mm 2 mps 625 mmHg 94%
    20:00 -1°C° 0.1 mm 2 mps 625 mmHg 93%
    21:00 -2°C° 0.1 mm 2 mps 625 mmHg 92%
    22:00 -2°C° 0.1 mm 2 mps 625 mmHg 91%
    23:00 -2°C° 0 mm 2 mps 624 mmHg 89%

    Tomorrow, 22 November, Wednesday

    Time Temperature Precipitation Wind Pressure Humidity
    00:00 -3°C° 0 mm 2 mps 624 mmHg 87%
    01:00 -3°C° 0 mm 2 mps 624 mmHg 86%
    02:00 -3°C° 0 mm 2 mps 624 mmHg 85%
    03:00 -3°C° 0 mm 2 mps 624 mmHg 84%
    04:00 -4°C° 0 mm 2 mps 624 mmHg 83%
    05:00 -4°C° 0 mm 2 mps 624 mmHg 82%
    06:00 -4°C° 0 mm 2 mps 623 mmHg 82%
    07:00 -4°C° 0 mm 2 mps 623 mmHg 81%
    08:00 -2°C° 0 mm 2 mps 624 mmHg 83%
    09:00 -1°C° 0 mm 2 mps 624 mmHg 85%
    10:00 +2°C° 0 mm 1 mps 625 mmHg 86%
    11:00 +3°C° 0 mm 1 mps 625 mmHg 88%
    12:00 +4°C° 0 mm 1 mps 625 mmHg 89%
    13:00 +5°C° 0 mm 1 mps 625 mmHg 90%
    14:00 +4°C° 0 mm 1 mps 624 mmHg 89%
    15:00 +3°C° 0 mm 1 mps 624 mmHg 89%
    16:00 +2°C° 0 mm 1 mps 624 mmHg 89%
    17:00 -1°C° 0 mm 2 mps 624 mmHg 87%
    18:00 -2°C° 0 mm 2 mps 624 mmHg 85%
    19:00 -3°C° 0 mm 2 mps 623 mmHg 83%
    20:00 -3°C° 0 mm 2 mps 623 mmHg 82%
    21:00 -3°C° 0 mm 2 mps 623 mmHg 81%
    22:00 -3°C° 0 mm 2 mps 623 mmHg 79%
    23:00 -3°C° 0 mm 2 mps 623 mmHg 79%

    Day after tomorrow, 23 November, Thursday

    Time Temperature Precipitation Wind Pressure Humidity
    00:00 -4°C° 0 mm 2 mps 623 mmHg 78%
    01:00 -4°C° 0 mm 2 mps 623 mmHg 78%
    02:00 -4°C° 0 mm 2 mps 623 mmHg 78%
    03:00 -4°C° 0 mm 2 mps 623 mmHg 78%
    04:00 -4°C° 0 mm 2 mps 623 mmHg 78%
    05:00 -4°C° 0 mm 2 mps 623 mmHg 78%
    06:00 -4°C° 0 mm 2 mps 623 mmHg 78%
    07:00 -4°C° 0 mm 2 mps 624 mmHg 77%
    08:00 -3°C° 0 mm 2 mps 624 mmHg 78%
    09:00 +1°C° 0 mm 1 mps 625 mmHg 79%
    10:00 +2°C° 0 mm 1 mps 626 mmHg 80%
    11:00 +3°C° 0 mm 1 mps 626 mmHg 81%
    12:00 +4°C° 0 mm 1 mps 627 mmHg 83%
    13:00 +5°C° 0 mm 1 mps 627 mmHg 84%
    14:00 +4°C° 0 mm 1 mps 627 mmHg 80%
    15:00 +3°C° 0 mm 1 mps 627 mmHg 75%
    16:00 +1°C° 0 mm 2 mps 627 mmHg 71%
    17:00 +1°C° 0 mm 2 mps 627 mmHg 70%
    18:00 -1°C° 0 mm 2 mps 627 mmHg 70%
    19:00 -2°C° 0 mm 2 mps 627 mmHg 69%
    20:00 -2°C° 0 mm 2 mps 628 mmHg 71%
    21:00 -2°C° 0 mm 2 mps 628 mmHg 72%
    22:00 -2°C° 0 mm 2 mps 628 mmHg 74%
    23:00 -2°C° 0 mm 2 mps 628 mmHg 75%

    24 November, Friday

    Time Temperature Precipitation Wind Pressure Humidity
    00:00 -2°C° 0 mm 2 mps 628 mmHg 76%
    01:00 -2°C° 0 mm 2 mps 628 mmHg 77%
    02:00 -2°C° 0 mm 2 mps 628 mmHg 77%
    03:00 0°C° 0 mm 1 mps 628 mmHg 77%
    04:00 0°C° 0 mm 1 mps 628 mmHg 77%
    05:00 -2°C° 0 mm 2 mps 628 mmHg 76%
    06:00 -2°C° 0 mm 2 mps 628 mmHg 75%
    07:00 -3°C° 0 mm 2 mps 628 mmHg 74%
    08:00 -1°C° 0 mm 2 mps 628 mmHg 75%
    09:00 +1°C° 0 mm 2 mps 629 mmHg 75%
    10:00 +3°C° 0 mm 1 mps 629 mmHg 76%
    11:00 +4°C° 0 mm 1 mps 629 mmHg 78%
    12:00 +4°C° 0 mm 1 mps 629 mmHg 80%
    13:00 +5°C° 0 mm 1 mps 629 mmHg 82%
    14:00 +4°C° 0 mm 1 mps 628 mmHg 81%
    15:00 +2°C° 0 mm 2 mps 628 mmHg 80%
    16:00 +1°C° 0 mm 2 mps 628 mmHg 79%
    17:00 -1°C° 0 mm 2 mps 628 mmHg 78%
    18:00 -2°C° 0 mm 2 mps 627 mmHg 76%
    19:00 -2°C° 0 mm 2 mps 627 mmHg 74%
    20:00 -3°C° 0 mm 2 mps 627 mmHg 73%
    21:00 -3°C° 0 mm 2 mps 627 mmHg 72%
    22:00 -3°C° 0 mm 2 mps 627 mmHg 71%
    23:00 -3°C° 0 mm 2 mps 627 mmHg 70%

    25 November, Saturday

    Time Temperature Precipitation Wind Pressure Humidity
    00:00 -3°C° 0 mm 2 mps 627 mmHg 70%
    01:00 -3°C° 0 mm 2 mps 627 mmHg 70%
    02:00 -3°C° 0 mm 2 mps 627 mmHg 70%
    03:00 -3°C° 0 mm 2 mps 626 mmHg 70%
    04:00 -3°C° 0 mm 2 mps 626 mmHg 70%
    05:00 -3°C° 0 mm 2 mps 626 mmHg 70%
    06:00 -3°C° 0 mm 2 mps 626 mmHg 70%
    07:00 -3°C° 0 mm 2 mps 626 mmHg 70%
    08:00 -2°C° 0 mm 2 mps 626 mmHg 71%
    09:00 -1°C° 0 mm 2 mps 627 mmHg 72%
    10:00 +1°C° 0 mm 2 mps 627 mmHg 73%
    11:00 +2°C° 0 mm 2 mps 627 mmHg 75%
    12:00 +3°C° 0 mm 2 mps 626 mmHg 77%
    13:00 +4°C° 0 mm 2 mps 626 mmHg 79%
    14:00 +3°C° 0 mm 2 mps 626 mmHg 81%
    15:00 +2°C° 0 mm 2 mps 625 mmHg 82%
    16:00 +1°C° 0 mm 2 mps 625 mmHg 83%
    17:00 -1°C° 0 mm 2 mps 625 mmHg 83%
    18:00 -2°C° 0 mm 2 mps 625 mmHg 82%
    19:00 -2°C° 0 mm 2 mps 625 mmHg 82%
    20:00 -2°C° 0 mm 2 mps 625 mmHg 81%
    21:00 -3°C° 0 mm 2 mps 626 mmHg 80%
    22:00 -3°C° 0 mm 2 mps 626 mmHg 79%
    23:00 -1°C° 0 mm 1 mps 626 mmHg 79%

    26 November, Sunday

    Time Temperature Precipitation Wind Pressure Humidity
    00:00 -1°C° 0 mm 1 mps 626 mmHg 79%
    01:00 -1°C° 0 mm 1 mps 626 mmHg 79%
    02:00 -1°C° 0 mm 1 mps 626 mmHg 80%
    03:00 -1°C° 0 mm 1 mps 626 mmHg 80%
    04:00 -1°C° 0 mm 1 mps 626 mmHg 81%
    05:00 -1°C° 0.1 mm 1 mps 626 mmHg 83%
    06:00 -1°C° 0.1 mm 1 mps 626 mmHg 84%
    07:00 -1°C° 0.1 mm 1 mps 626 mmHg 86%
    08:00 0°C° 0.8 mm 1 mps 627 mmHg 88%
    09:00 0°C° 0.8 mm 1 mps 627 mmHg 90%
    10:00 +1°C° 0.8 mm 1 mps 628 mmHg 92%
    11:00 -2°C° 1.1 mm 2 mps 628 mmHg 92%
    12:00 -2°C° 1.1 mm 2 mps 628 mmHg 92%
    13:00 -4°C° 1.1 mm 3 mps 628 mmHg 92%
    14:00 -4°C° 0.8 mm 3 mps 628 mmHg 92%
    15:00 -5°C° 0.8 mm 3 mps 628 mmHg 92%
    16:00 -6°C° 0.8 mm 3 mps 629 mmHg 92%
    17:00 -7°C° 0.4 mm 3 mps 629 mmHg 92%
    18:00 -6°C° 0.4 mm 2 mps 629 mmHg 92%
    19:00 -7°C° 0.4 mm 2 mps 629 mmHg 91%
    20:00 -7°C° 0.5 mm 2 mps 630 mmHg 91%
    21:00 -8°C° 0.5 mm 2 mps 630 mmHg 91%
    22:00 -8°C° 0.5 mm 2 mps 630 mmHg 91%
    23:00 -8°C° 0.6 mm 2 mps 630 mmHg 92%
    Show more